Location: Hardenberg
(52.5670°N, 6.6170°E)
Time: 19:03:51
(UTC+02:00)

ISS - Pass Details

Date: 25 May 2021
Orbit: 417 x 422 km, 51.6° (Epoch: 12 June)

Event Time Altitude Azimuth Distance (km) Brightness Sun altitude
Rises 23:47:26 0° 281° (WNW) 2,369 0.6 -13.0°
Reaches altitude 10° 23:49:41 10° 270° (W) 1,504 -0.6 -13.1°
Maximum altitude 23:52:40 29° 208° (SSW) 798 -2.7 -13.3°
Enters shadow 23:53:40 24° 176° (S) 906 -2.6 -13.4°
